This is the latest recevied weather packets stored in our database for station/object JF7BTK-10. If no packets are shown the sender has not sent any weather packets the latest 10 day(s).
| Time | Temp. | Humidity | Pressure | Rain* | Wind** | Luminosity | Snow |
|---|---|---|---|---|---|---|---|
| 1777562032 | 6.67° C | 68% | 1011.2 hPa | 0 mm | - | - | - |
| 1777561134 | 7.22° C | 66% | 1011.3 hPa | 0 mm | - | - | - |
| 1777560230 | 7.22° C | 66% | 1011.5 hPa | 0 mm | - | - | - |
| 1777559330 | 7.78° C | 60% | 1011.9 hPa | 0 mm | - | - | - |
| 1777558430 | 7.78° C | 63% | 1012.3 hPa | 0 mm | - | - | - |
| 1777557532 | 7.78° C | 68% | 1012.5 hPa | 0 mm | - | - | - |
| 1777556630 | 7.22° C | 73% | 1012.6 hPa | 0 mm | - | - | - |
| 1777555732 | 7.78° C | 64% | 1012.8 hPa | 0 mm | - | - | - |
| 1777554830 | 8.33° C | 61% | 1013 hPa | 0 mm | - | - | - |
| 1777553931 | 8.33° C | 57% | 1013.1 hPa | 0 mm | - | - | - |
| 1777553031 | 8.89° C | 56% | 1013 hPa | 0 mm | - | - | - |
| 1777552132 | 8.33° C | 60% | 1013.5 hPa | 0 mm | - | - | - |
| 1777551231 | 8.33° C | 62% | 1013.9 hPa | 0 mm | - | - | - |
| 1777550331 | 8.89° C | 66% | 1013.9 hPa | 0 mm | - | - | - |
| 1777549431 | 9.44° C | 71% | 1014.2 hPa | 0 mm | - | - | - |
| 1777548530 | 9.44° C | 71% | 1014.2 hPa | 0 mm | - | - | - |
| 1777547630 | 9.44° C | 72% | 1014.4 hPa | 0 mm | - | - | - |
| 1777546731 | 10° C | 75% | 1014.5 hPa | 0 mm | - | - | - |
| 1777546653 | 10° C | 75% | 1014.4 hPa | 0 mm | - | - | - |
| 1777545831 | 10° C | 78% | 1014.5 hPa | 0 mm | - | - | - |
| 1777544932 | 10.56° C | 77% | 1014.5 hPa | 0 mm | - | - | - |
| 1777544032 | 11.11° C | 75% | 1014.7 hPa | 0 mm | - | - | - |
| 1777543651 | 11.11° C | 74% | 1014.5 hPa | 0 mm | - | - | - |
| 1777543352 | 11.11° C | 74% | 1014.7 hPa | 0 mm | - | - | - |
| 1777543132 | 11.11° C | 73% | 1014.6 hPa | 0 mm | - | - | - |
* Rain latest hour (hover to see other rain measurements)
** Current wind speed in m/s (hover to see current wind gust speed)